Time,TemperatureF,DewpointF,PressureIn,WindDirection,WindDirectionDegrees,WindSpeedMPH,WindSpeedGustMPH,Humidity,HourlyPrecipIn,Conditions,Clouds,dailyrainin,SolarRadiationWatts/m^2,SoftwareType,DateUTC
2013-05-07 00:03:00,59.0,48.0,-100.00,SSE,153,1.0,7.0,66,0.00,,,0.00,0.000000,,2013-05-07 04:03:00,
2013-05-07 00:33:00,57.0,48.0,-100.00,East,83,0.0,3.0,73,0.00,,,0.00,0.000000,,2013-05-07 04:33:00,
2013-05-07 00:42:00,57.0,48.0,-100.00,East,83,0.0,3.0,73,0.00,,,0.00,0.000000,,2013-05-07 04:42:00,
2013-05-07 00:53:00,57.0,48.0,-100.00,East,83,0.0,3.0,73,0.00,,,0.00,0.000000,,2013-05-07 04:53:00,
2013-05-07 01:02:00,57.0,48.0,-100.00,East,83,0.0,3.0,73,0.00,,,0.00,0.000000,,2013-05-07 05:02:00,
2013-05-07 01:32:00,54.0,49.0,-100.00,SW,222,0.0,4.0,82,0.00,,,0.00,0.000000,,2013-05-07 05:32:00,
2013-05-07 01:42:00,54.0,49.0,-100.00,SW,222,0.0,4.0,82,0.00,,,0.00,0.000000,,2013-05-07 05:42:00,
2013-05-07 01:52:00,54.0,49.0,-100.00,SW,222,0.0,4.0,82,0.00,,,0.00,0.000000,,2013-05-07 05:52:00,
2013-05-07 02:02:00,54.0,49.0,-100.00,SW,222,0.0,4.0,82,0.00,,,0.00,0.000000,,2013-05-07 06:02:00,
2013-05-07 02:32:00,54.0,49.0,-100.00,SSE,166,0.0,4.0,82,0.00,,,0.00,0.000000,,2013-05-07 06:32:00,
2013-05-07 02:42:00,54.0,49.0,-100.00,SSE,166,0.0,4.0,82,0.00,,,0.00,0.000000,,2013-05-07 06:42:00,
2013-05-07 02:52:00,54.0,49.0,-100.00,SSE,166,0.0,4.0,82,0.00,,,0.00,0.000000,,2013-05-07 06:52:00,
2013-05-07 03:02:00,54.0,49.0,-100.00,SSE,166,0.0,4.0,82,0.00,,,0.00,0.000000,,2013-05-07 07:02:00,
2013-05-07 03:32:00,52.0,49.0,-100.00,North,358,0.0,2.0,88,0.00,,,0.00,0.000000,,2013-05-07 07:32:00,
2013-05-07 03:42:00,52.0,49.0,-100.00,North,358,0.0,2.0,88,0.00,,,0.00,0.000000,,2013-05-07 07:42:00,
2013-05-07 03:53:00,52.0,49.0,-100.00,North,358,0.0,2.0,88,0.00,,,0.00,0.000000,,2013-05-07 07:53:00,
2013-05-07 04:02:00,52.0,49.0,-100.00,North,358,0.0,2.0,88,0.00,,,0.00,0.000000,,2013-05-07 08:02:00,
2013-05-07 04:32:00,51.0,49.0,-100.00,NNW,346,0.0,3.0,92,0.00,,,0.00,0.000000,,2013-05-07 08:32:00,
2013-05-07 04:42:00,51.0,49.0,-100.00,NNW,346,0.0,3.0,92,0.00,,,0.00,0.000000,,2013-05-07 08:42:00,
2013-05-07 04:52:00,51.0,49.0,-100.00,NNW,346,0.0,3.0,92,0.00,,,0.00,0.000000,,2013-05-07 08:52:00,
2013-05-07 05:01:00,51.0,49.0,-100.00,NNW,346,0.0,3.0,92,0.00,,,0.00,0.000000,,2013-05-07 09:01:00,
2013-05-07 05:33:00,50.0,48.0,-100.00,WSW,253,0.0,3.0,94,0.00,,,0.00,0.000000,,2013-05-07 09:33:00,
2013-05-07 05:43:00,50.0,48.0,-100.00,WSW,253,0.0,3.0,94,0.00,,,0.00,0.000000,,2013-05-07 09:43:00,
2013-05-07 05:52:00,50.0,48.0,-100.00,WSW,253,0.0,3.0,94,0.00,,,0.00,0.000000,,2013-05-07 09:52:00,
2013-05-07 06:03:00,50.0,48.0,-100.00,WSW,253,0.0,3.0,94,0.00,,,0.00,0.000000,,2013-05-07 10:03:00,
2013-05-07 06:33:00,51.0,49.0,-100.00,SW,221,0.0,0.0,93,0.00,,,0.00,1.000000,,2013-05-07 10:33:00,
2013-05-07 06:42:00,51.0,49.0,-100.00,SW,221,0.0,0.0,93,0.00,,,0.00,1.000000,,2013-05-07 10:42:00,
2013-05-07 06:52:00,51.0,49.0,-100.00,SW,221,0.0,0.0,93,0.00,,,0.00,1.000000,,2013-05-07 10:52:00,
2013-05-07 07:02:00,51.0,49.0,-100.00,SW,221,0.0,0.0,93,0.00,,,0.00,1.000000,,2013-05-07 11:02:00,
2013-05-07 08:32:00,54.0,51.0,-100.00,SW,236,0.0,3.0,88,-99.99,,,0.00,83.000000,,2013-05-07 12:32:00,
2013-05-07 08:42:00,54.0,51.0,-100.00,SW,236,0.0,3.0,88,-99.99,,,0.00,83.000000,,2013-05-07 12:42:00,
2013-05-07 08:52:00,54.0,51.0,-100.00,SW,236,0.0,3.0,88,-99.99,,,0.00,83.000000,,2013-05-07 12:52:00,
2013-05-07 09:02:00,54.0,51.0,-100.00,SW,236,0.0,3.0,88,-99.99,,,0.00,83.000000,,2013-05-07 13:02:00,
2013-05-07 09:32:00,64.0,51.0,-100.00,South,176,5.0,12.0,62,0.00,,,-99.99,280.000000,,2013-05-07 13:32:00,
2013-05-07 09:42:00,64.0,51.0,-100.00,South,176,5.0,12.0,62,0.00,,,-99.99,280.000000,,2013-05-07 13:42:00,
2013-05-07 09:52:00,64.0,51.0,-100.00,South,176,5.0,12.0,62,0.00,,,-99.99,280.000000,,2013-05-07 13:52:00,
2013-05-07 10:02:00,64.0,51.0,-100.00,South,176,5.0,12.0,62,0.00,,,-99.99,280.000000,,2013-05-07 14:02:00,
2013-05-07 10:32:00,68.0,50.0,-100.00,SE,136,4.0,15.0,52,0.00,,,0.00,612.000000,,2013-05-07 14:32:00,
2013-05-07 10:42:00,68.0,50.0,-100.00,SE,136,4.0,15.0,52,0.00,,,0.00,612.000000,,2013-05-07 14:42:00,
2013-05-07 10:52:00,68.0,50.0,-100.00,SE,136,4.0,15.0,52,0.00,,,0.00,612.000000,,2013-05-07 14:52:00,
2013-05-07 11:01:00,68.0,50.0,-100.00,SE,136,4.0,15.0,52,0.00,,,0.00,612.000000,,2013-05-07 15:01:00,
2013-05-07 11:33:00,71.0,50.0,-100.00,SSE,160,5.0,13.0,48,0.00,,,0.00,711.000000,,2013-05-07 15:33:00,
2013-05-07 11:43:00,71.0,50.0,-100.00,SSE,160,5.0,13.0,48,0.00,,,0.00,711.000000,,2013-05-07 15:43:00,
2013-05-07 11:53:00,71.0,50.0,-100.00,SSE,160,5.0,13.0,48,0.00,,,0.00,711.000000,,2013-05-07 15:53:00,
2013-05-07 12:03:00,71.0,50.0,-100.00,SSE,160,5.0,13.0,48,0.00,,,0.00,711.000000,,2013-05-07 16:03:00,
2013-05-07 14:32:00,76.0,43.0,-100.00,SSE,167,5.0,14.0,31,-99.99,,,-99.99,816.000000,,2013-05-07 18:32:00,
2013-05-07 14:42:00,76.0,43.0,-100.00,SSE,167,5.0,14.0,31,-99.99,,,-99.99,816.000000,,2013-05-07 18:42:00,
2013-05-07 14:52:00,76.0,43.0,-100.00,SSE,167,5.0,14.0,31,-99.99,,,-99.99,816.000000,,2013-05-07 18:52:00,
2013-05-07 15:02:00,76.0,43.0,-100.00,SSE,167,5.0,14.0,31,-99.99,,,-99.99,816.000000,,2013-05-07 19:02:00,
2013-05-07 15:32:00,75.0,43.0,-100.00,SSE,164,5.0,14.0,32,0.00,,,0.00,612.000000,,2013-05-07 19:32:00,
2013-05-07 15:42:00,75.0,43.0,-100.00,SSE,164,5.0,14.0,32,0.00,,,0.00,612.000000,,2013-05-07 19:42:00,
2013-05-07 15:52:00,75.0,43.0,-100.00,SSE,164,5.0,14.0,32,0.00,,,0.00,612.000000,,2013-05-07 19:52:00,
2013-05-07 16:02:00,75.0,43.0,-100.00,SSE,164,5.0,14.0,32,0.00,,,0.00,612.000000,,2013-05-07 20:02:00,
2013-05-07 16:32:00,74.0,41.0,-100.00,SSE,159,4.0,14.0,31,0.00,,,0.00,601.000000,,2013-05-07 20:32:00,
2013-05-07 16:42:00,74.0,41.0,-100.00,SSE,159,4.0,14.0,31,0.00,,,0.00,601.000000,,2013-05-07 20:42:00,
2013-05-07 16:52:00,74.0,41.0,-100.00,SSE,159,4.0,14.0,31,0.00,,,0.00,601.000000,,2013-05-07 20:52:00,
2013-05-07 17:02:00,74.0,41.0,-100.00,SSE,159,4.0,14.0,31,0.00,,,0.00,601.000000,,2013-05-07 21:02:00,
2013-05-07 17:33:00,78.0,41.0,-100.00,South,182,5.0,9.0,27,0.00,,,0.00,522.000000,,2013-05-07 21:33:00,
2013-05-07 17:43:00,78.0,41.0,-100.00,South,182,5.0,9.0,27,0.00,,,0.00,522.000000,,2013-05-07 21:43:00,
2013-05-07 17:53:00,78.0,41.0,-100.00,South,182,5.0,9.0,27,0.00,,,0.00,522.000000,,2013-05-07 21:53:00,
2013-05-07 18:02:00,78.0,41.0,-100.00,South,182,5.0,9.0,27,0.00,,,0.00,522.000000,,2013-05-07 22:02:00,
2013-05-07 18:33:00,76.0,40.0,-100.00,South,186,5.0,11.0,27,0.00,,,0.00,358.000000,,2013-05-07 22:33:00,
2013-05-07 18:42:00,76.0,40.0,-100.00,South,186,5.0,11.0,27,0.00,,,0.00,358.000000,,2013-05-07 22:42:00,
2013-05-07 18:52:00,76.0,40.0,-100.00,South,186,5.0,11.0,27,0.00,,,0.00,358.000000,,2013-05-07 22:52:00,
2013-05-07 19:02:00,76.0,40.0,-100.00,South,186,5.0,11.0,27,0.00,,,0.00,358.000000,,2013-05-07 23:02:00,
2013-05-07 19:32:00,76.0,41.0,-100.00,ENE,71,3.0,11.0,28,0.00,,,0.00,320.000000,,2013-05-07 23:32:00,
2013-05-07 19:42:00,76.0,41.0,-100.00,ENE,71,3.0,11.0,28,0.00,,,0.00,320.000000,,2013-05-07 23:42:00,
2013-05-07 19:52:00,76.0,41.0,-100.00,ENE,71,3.0,11.0,28,0.00,,,0.00,320.000000,,2013-05-07 23:52:00,
2013-05-07 20:02:00,76.0,41.0,-100.00,ENE,71,3.0,11.0,28,0.00,,,0.00,320.000000,,2013-05-08 00:02:00,
2013-05-07 20:32:00,70.0,41.0,-100.00,SE,146,3.0,9.0,35,0.00,,,-99.99,55.000000,,2013-05-08 00:32:00,
2013-05-07 20:42:00,70.0,41.0,-100.00,SE,146,3.0,9.0,35,0.00,,,-99.99,55.000000,,2013-05-08 00:42:00,
2013-05-07 20:52:00,70.0,41.0,-100.00,SE,146,3.0,9.0,35,0.00,,,-99.99,55.000000,,2013-05-08 00:52:00,
2013-05-07 21:02:00,70.0,41.0,-100.00,SE,146,3.0,9.0,35,0.00,,,-99.99,55.000000,,2013-05-08 01:02:00,
2013-05-07 21:32:00,68.0,42.0,-100.00,SSE,148,0.0,9.0,39,0.00,,,0.00,4.000000,,2013-05-08 01:32:00,
2013-05-07 21:42:00,68.0,42.0,-100.00,SSE,148,0.0,9.0,39,0.00,,,0.00,4.000000,,2013-05-08 01:42:00,
2013-05-07 21:52:00,68.0,42.0,-100.00,SSE,148,0.0,9.0,39,0.00,,,0.00,4.000000,,2013-05-08 01:52:00,
2013-05-07 22:02:00,68.0,42.0,-100.00,SSE,148,0.0,9.0,39,0.00,,,0.00,4.000000,,2013-05-08 02:02:00,
2013-05-07 22:32:00,66.0,45.0,-100.00,ESE,113,0.0,6.0,46,0.00,,,0.00,0.000000,,2013-05-08 02:32:00,
2013-05-07 22:42:00,66.0,45.0,-100.00,ESE,113,0.0,6.0,46,0.00,,,0.00,0.000000,,2013-05-08 02:42:00,
2013-05-07 22:52:00,66.0,45.0,-100.00,ESE,113,0.0,6.0,46,0.00,,,0.00,0.000000,,2013-05-08 02:52:00,
2013-05-07 23:02:00,66.0,45.0,-100.00,ESE,113,0.0,6.0,46,0.00,,,0.00,0.000000,,2013-05-08 03:02:00,
2013-05-07 23:33:00,63.0,47.0,-100.00,South,180,0.0,4.0,55,0.00,,,0.00,0.000000,,2013-05-08 03:33:00,
2013-05-07 23:43:00,63.0,47.0,-100.00,South,180,0.0,4.0,55,0.00,,,0.00,0.000000,,2013-05-08 03:43:00,
2013-05-07 23:52:00,63.0,47.0,-100.00,South,180,0.0,4.0,55,0.00,,,0.00,0.000000,,2013-05-08 03:52:00,